Weather History for KEFK - October, 2012

Change the Weather History Date:

Wednesday, October 31, 2012

  Actual Average Record
Temperature  
Mean Temperature 54 °F -  
Max Temperature 61 °F 49 °F 72 °F (1956)
Min Temperature 48 °F 29 °F 18 °F (1966)
Degree Days  
Heating Degree Days 10    
Growing Degree Days 4 (Base 50)    
Moisture  
Dew Point 45 °F    
Average Humidity 73    
Maximum Humidity 85    
Minimum Humidity 58    
Precipitation  
Precipitation 0.00 in - - ()
Sea Level Pressure  
Sea Level Pressure 29.48 in    
Wind  
Wind Speed 4 mph (South)    
Max Wind Speed 13 mph    
Max Gust Speed 28 mph    
Visibility 8 miles    
Events Fog , Rain    
Averages and records for this station are not official NWS values.
T = Trace of Precipitation, MM = Missing Value Source: NWS Daily Summary

Daily Weather History Graph

Daily Weather History Graph

Search for Another Location

Airport or City:

Trip Planner

Search our weather history database for the weather conditions in past years. The results will help you decide how hot, cold, wet, or windy it might be!

Date:

Astronomy

Oct. 31, 2012 Rise Set
Actual Time 7:26 AM EDT 5:37 PM EDT
Civil Twilight 6:55 AM EDT 6:08 PM EDT
Nautical Twilight 6:21 AM EDT 6:43 PM EDT
Astronomical Twilight 5:47 AM EDT 7:17 PM EDT
Moon 6:42 PM EDT (10/31) 9:09 AM EDT (10/31)
Length of Visible Light 11h 12m
Length of Day
10h 11m
Full, 97% of the Moon is Illuminated
Oct 31
Full
Nov 6
Last Quarter
Nov 13
New
Nov 20
First Quarter
Nov 28
Full

Hourly Weather History & Observations

Time (EDT) Temp. Dew Point Humidity Pressure Visibility Wind Dir Wind Speed Gust Speed Precip Events Conditions
12:15 AM 59.2 °F 52.3 °F 78% 29.54 in 10.0 mi SE 3.5 mph - N/A   Clear
12:35 AM 58.5 °F 51.4 °F 77% 29.55 in 10.0 mi SSE 4.6 mph - N/A   Clear
12:55 AM 58.6 °F 51.8 °F 78% 29.54 in 10.0 mi SSE 5.8 mph - N/A   Mostly Cloudy
1:15 AM 59.0 °F 50.9 °F 74% 29.53 in 10.0 mi SSE 6.9 mph - N/A   Overcast
1:35 AM 59.0 °F 50.5 °F 73% 29.52 in 10.0 mi SSW 6.9 mph - N/A   Overcast
1:55 AM 57.6 °F 50.9 °F 78% 29.52 in 10.0 mi South 3.5 mph - N/A   Mostly Cloudy
2:15 AM 55.8 °F 49.5 °F 79% 29.53 in 10.0 mi SSE 4.6 mph - N/A   Mostly Cloudy
2:35 AM 56.3 °F 49.8 °F 79% 29.53 in 10.0 mi SSE 4.6 mph - N/A   Mostly Cloudy
2:55 AM 55.0 °F 48.4 °F 78% 29.53 in 10.0 mi East 3.5 mph - N/A   Scattered Clouds
3:15 AM 56.1 °F 50.4 °F 81% 29.52 in 10.0 mi SSE 3.5 mph - N/A   Scattered Clouds
3:35 AM 55.4 °F 48.9 °F 79% 29.52 in 10.0 mi Calm Calm - N/A   Scattered Clouds
3:55 AM 54.5 °F 48.6 °F 80% 29.52 in 10.0 mi WSW 3.5 mph - N/A   Mostly Cloudy
4:15 AM 54.0 °F 48.7 °F 82% 29.51 in 10.0 mi WSW 3.5 mph - N/A   Scattered Clouds
4:35 AM 53.8 °F 48.7 °F 83% 29.51 in 10.0 mi Calm Calm - N/A   Scattered Clouds
4:55 AM 52.2 °F 47.1 °F 83% 29.50 in 10.0 mi Calm Calm - N/A   Clear
5:15 AM 52.7 °F 47.7 °F 83% 29.51 in 10.0 mi Calm Calm - N/A   Clear
5:35 AM 52.7 °F 47.8 °F 84% 29.50 in 4.0 mi Calm Calm - N/A   Haze
5:55 AM 52.5 °F 47.7 °F 84% 29.49 in 0.5 mi West 4.6 mph - N/A   Haze
6:15 AM 51.4 °F 46.8 °F 84% 29.48 in 1.5 mi Calm Calm - N/A   Scattered Clouds
6:35 AM 48.6 °F 44.1 °F 84% 29.47 in 0.5 mi Calm Calm - N/A   Haze
6:55 AM 50.0 °F 45.5 °F 85% 29.47 in 0.2 mi Calm Calm - N/A Fog Fog
7:15 AM 48.7 °F 44.1 °F 84% 29.47 in 0.5 mi Calm Calm - N/A   Haze
7:35 AM 49.1 °F 44.6 °F 84% 29.47 in 0.2 mi Calm Calm - N/A Fog Fog
7:55 AM 48.9 °F 44.4 °F 84% 29.46 in 0.2 mi Calm Calm - N/A   Haze
8:15 AM 49.3 °F 44.8 °F 84% 29.45 in 0.2 mi WSW 4.6 mph - N/A Fog Fog
8:35 AM 50.7 °F 46.2 °F 85% 29.45 in 1.5 mi Calm Calm - N/A   Haze
8:55 AM 51.1 °F 46.6 °F 85% 29.45 in 1.8 mi Calm Calm - N/A   Mist
9:15 AM 52.0 °F 47.5 °F 85% 29.45 in 1.2 mi Calm Calm - N/A   Haze
9:35 AM 51.8 °F 47.3 °F 85% 29.45 in 0.5 mi Calm Calm - N/A   Haze
9:55 AM 56.3 °F 51.8 °F 85% 29.45 in 10.0 mi Calm Calm - N/A   Mostly Cloudy
10:15 AM 57.0 °F 52.2 °F 84% 29.45 in 10.0 mi ESE 3.5 mph - N/A   Scattered Clouds
10:35 AM 57.7 °F 53.1 °F 84% 29.45 in 10.0 mi South 5.8 mph - N/A   Mostly Cloudy
10:55 AM 59.9 °F 51.8 °F 75% 29.45 in 10.0 mi South 6.9 mph - N/A   Overcast
11:15 AM 60.1 °F 52.7 °F 77% 29.44 in 10.0 mi SW 3.5 mph - N/A   Scattered Clouds
11:35 AM 60.6 °F 52.2 °F 74% 29.44 in 10.0 mi SW 4.6 mph - N/A   Mostly Cloudy
11:55 AM 61.5 °F 52.2 °F 71% 29.44 in 10.0 mi South 6.9 mph - N/A   Mostly Cloudy
12:15 PM 59.2 °F 51.6 °F 76% 29.44 in 5.0 mi South 12.7 mph 18.4 mph N/A Rain Light Rain
12:35 PM 60.3 °F 50.9 °F 71% 29.44 in 10.0 mi SSE 12.7 mph 24.2 mph N/A   Mostly Cloudy
12:55 PM 60.8 °F 49.8 °F 67% 29.44 in 10.0 mi South 10.4 mph 27.6 mph N/A   Overcast
1:15 PM 58.6 °F 46.6 °F 64% 29.45 in 10.0 mi South 9.2 mph 19.6 mph N/A   Overcast
1:35 PM 58.1 °F 46.8 °F 66% 29.45 in 10.0 mi SSE 8.1 mph - N/A   Overcast
1:55 PM 58.6 °F 45.9 °F 63% 29.44 in 10.0 mi SSE 11.5 mph - N/A   Overcast
2:15 PM 58.5 °F 45.0 °F 61% 29.44 in 10.0 mi SSE 11.5 mph 17.3 mph N/A   Overcast
2:35 PM 58.3 °F 45.0 °F 61% 29.44 in 10.0 mi South 9.2 mph - N/A   Overcast
2:55 PM 58.1 °F 45.1 °F 62% 29.44 in 10.0 mi South 8.1 mph - N/A   Overcast
3:15 PM 55.8 °F 46.4 °F 71% 29.45 in 10.0 mi SSW 8.1 mph - N/A   Overcast
3:35 PM 55.8 °F 45.9 °F 69% 29.45 in 10.0 mi SSW 10.4 mph - N/A   Overcast
3:55 PM 54.5 °F 43.7 °F 67% 29.45 in 10.0 mi SSW 11.5 mph - N/A   Overcast
4:15 PM 53.6 °F 43.5 °F 69% 29.46 in 10.0 mi SSW 9.2 mph - N/A   Light Drizzle
4:35 PM 53.2 °F 43.2 °F 69% 29.46 in 10.0 mi South 5.8 mph - N/A   Light Drizzle
4:55 PM 52.7 °F 42.6 °F 69% 29.46 in 10.0 mi SE 6.9 mph - N/A Rain Light Rain
5:15 PM 52.3 °F 41.7 °F 67% 29.46 in 10.0 mi SSE 3.5 mph - N/A   Light Drizzle
5:35 PM 52.0 °F 41.9 °F 69% 29.46 in 10.0 mi Calm Calm - N/A   Overcast
5:55 PM 52.7 °F 40.5 °F 63% 29.46 in 10.0 mi South 5.8 mph - N/A   Overcast
6:15 PM 52.9 °F 38.5 °F 58% 29.47 in 10.0 mi SSE 6.9 mph - N/A   Overcast
6:35 PM 51.8 °F 38.3 °F 60% 29.47 in 10.0 mi SSE 5.8 mph - N/A   Overcast
6:55 PM 51.3 °F 38.5 °F 62% 29.48 in 10.0 mi South 6.9 mph - N/A   Overcast
7:15 PM 51.8 °F 39.0 °F 62% 29.48 in 10.0 mi SSE 4.6 mph - N/A   Overcast
7:35 PM 51.4 °F 38.8 °F 62% 29.48 in 10.0 mi South 3.5 mph - N/A   Overcast
7:55 PM 51.4 °F 38.8 °F 62% 29.48 in 10.0 mi South 4.6 mph - N/A   Overcast
8:15 PM 51.3 °F 38.7 °F 62% 29.48 in 10.0 mi South 5.8 mph - N/A   Overcast
8:35 PM 51.3 °F 38.3 °F 61% 29.48 in 10.0 mi SSE 6.9 mph - N/A   Overcast
8:55 PM 50.9 °F 38.3 °F 62% 29.48 in 10.0 mi SSE 5.8 mph - N/A   Overcast
9:15 PM 50.7 °F 39.0 °F 64% 29.48 in 10.0 mi SSE 6.9 mph - N/A   Overcast
9:35 PM 50.7 °F 38.7 °F 63% 29.49 in 10.0 mi South 4.6 mph - N/A   Overcast
9:55 PM 50.2 °F 37.9 °F 63% 29.49 in 10.0 mi South 3.5 mph - N/A   Overcast
10:15 PM 49.6 °F 37.8 °F 64% 29.48 in 10.0 mi SSW 3.5 mph - N/A   Mostly Cloudy
10:35 PM 49.3 °F 37.8 °F 65% 29.48 in 10.0 mi Calm Calm - N/A   Mostly Cloudy
10:55 PM 49.1 °F 37.4 °F 64% 29.48 in 10.0 mi South 3.5 mph - N/A   Mostly Cloudy
11:15 PM 48.9 °F 37.2 °F 64% 29.49 in 10.0 mi South 3.5 mph - N/A   Mostly Cloudy
11:35 PM 48.7 °F 36.5 °F 63% 29.48 in 10.0 mi South 5.8 mph - N/A   Scattered Clouds
11:55 PM 48.4 °F 36.3 °F 63% 29.49 in 10.0 mi South 4.6 mph - N/A   Clear